Reflectivity
-20 -20 -20 -20 -20 -20 -20 -20 -20 -9 -16 27 -9 -20 -19 -20 -13 25 4 -19 12 19 19 24 17 16 21 12 9 -13 -18 -20 -18 -20 -20 -20 -20 -20 -20 -20 -20 -20 -20
-20 -20 -20 -20 -20 -20 -20 -20 -20 -19 -17 11 21 15 -3 -16 -20 -17 27 24 26 24 22 20 10 19 19 15 -20 -10 -20 -20 -20 -20 -20 -20 -20 -20 -20 -20 -20 -20 -20
-20 -20 -20 -20 -20 -20 -20 -7 -20 -20 -20 -18 9 32 23 14 -20 -20 -20 -20 7 7 13 21 0 4 -20 -20 -20 -20 -20 -20 -20 -20 -20 -20 -20 -20 -20 -20 -20 -20 -20
-20 -20 -20 -20 -20 -20 -20 -20 -20 -20 -20 -20 -20 -17 25 24 2 -18 -12 3 -20 -20 -4 12 -13 -4 -20 -20 -20 -20 -20 -20 -20 -20 -20 -20 -20 -20 -20 -20 -20 -20 -20
-20 -20 -20 -20 -20 -20 -20 -20 -20 -20 -20 -20 -20 -20 -8 7 12 -20 -20 -20 -20 -20 -20 -20 -20 -20 -20 -20 -20 -20 -20 -20 -20 -20 -20 -20 -20 -20 -20 -20 -20 -20 -20
-20 -20 -20 -20 -20 -20 -20 -20 -20 -20 -20 -20 -20 -20 -20 -20 -20 -14 -1 -20 -20 -20 -20 -20 -20 -20 -20 -20 -20 -20 -20 -20 -20 -20 -20 -20 -20 -20 -20 -20 -20 -20 -20
-20 -20 -20 -20 -20 -20 -20 -20 -20 -20 -20 -20 -20 -20 -20 -20 -20 -20 -20 -20 -20 -20 -20 -20 -20 -20 -20 -20 -20 -20 -20 -20 -20 -20 -20 -20 -20 -20 -20 -20 -20 -20 -20
-20 -20 -20 -20 -20 -20 -20 -20 -20 -20 -20 -20 -20 -20 -20 -20 -20 -20 -20 -20 -20 -20 -20 -20 -20 -20 -20 -20 -20 -20 -20 -20 -20 -20 -20 -20 -20 -20 -20 -20 -20 -20 -20
-20 -20 -20 -20 -20 -20 -20 -20 -20 -20 -20 -20 -20 -20 -20 -20 -20 -20 -20 -20 -20 -20 -20 -20 -20 -20 -20 -20 -20 -20 -20 -20 -20 -20 -20 -20 -20 -20 -20 -20 -20 -20 -20
-20 -20 -20 -20 -20 -20 -20 -20 -20 -20 -20 -20 -20 -20 -20 -20 -20 -20 -20 -20 -20 -20 -20 -20 -20 -20 -20 -20 -20 -20 -20 -20 -20 -20 -20 -20 -20 -20 -20 -20 -20 -20 -20
-20 -20 -20 -20 -20 -20 -20 -20 -20 -20 -20 -20 -20 -20 -20 -20 -20 -20 -20 -20 -20 -20 -20 -20 -20 -20 -20 -20 -20 -20 -20 -20 -20 -20 -20 -20 -20 -20 -20 -20 -20 -20 -20
-20 -20 -20 -20 -20 -20 -20 -20 -20 -20 -20 -20 -20 -20 -20 -20 -20 -20 -20 -20 -20 -20 -20 -20 -20 -20 -20 -20 -20 -20 -20 -20 -20 -20 -20 -20 -20 -20 -20 -20 -20 -20 -20
-20 -20 -20 -20 -20 -20 -20 -20 -20 -20 -20 -20 -20 -20 -20 -20 -20 -20 -20 -20 -20 -20 -20 -20 -20 -20 -20 -20 -20 -20 -20 -20 -20 -20 -20 -20 -20 -20 -20 -20 -20 -20 -20
-20 -20 -20 -20 -20 -20 -20 -20 -20 -20 -20 -20 -20 -20 -20 -20 -20 -20 -20 -20 -20 -20 -20 -20 -20 -20 -20 -20 -20 -20 -20 -20 -20 -20 -20 -20 -20 -20 -20 -20 -20 -20 -19
-20 -20 -20 -20 -20 -20 -20 -20 -20 -20 -20 -20 -20 -20 -20 -20 -20 -20 -20 -20 -20 -20 -20 -20 -20 -20 -20 -20 -20 -20 -20 -20 -20 -20 -20 -20 -20 -19 6 -15 -13 4 13
-20 -20 -20 -20 -20 -20 -20 -20 -20 -20 -20 -20 -20 -20 -20 -20 -20 -20 -20 -20 -20 -20 -20 -20 -20 -20 -20 -20 -20 -20 -20 -20 -20 -20 -20 -20 -20 -18 23 26 10 -20 -20
-20 -20 -20 -20 -20 -20 -20 -20 -20 -20 -20 -20 -20 -20 -20 -20 -20 -20 -20 -20 -20 -20 -20 -20 -20 -20 -20 -20 -20 -20 -20 -20 -20 -20 -20 -20 -20 9 8 1 -2 1 -4
-20 -20 -20 -20 -20 -20 -20 -20 -20 -20 -20 -20 -8 -20 -20 -20 -20 -20 -20 -20 -20 -15 -20 -20 -20 -20 -20 -20 -20 -20 -20 -20 -20 -15 5 -9 -6 18 15 16 10 -4 -17
-20 -20 -20 -20 -20 -20 -20 -20 -20 -20 -20 -20 -20 -16 -20 -20 -20 -20 -20 -20 -20 -20 -20 -20 -20 -20 -20 -20 -20 -20 -20 2 27 27 34 31 22 1 -3 2 -5 -10 -15
-20 -20 -20 -20 -20 -20 -20 -20 -20 -20 -20 -20 -20 -20 -20 -20 -20 -20 -20 -20 -20 -20 -20 -20 -20 -20 -20 -20 -20 2 2 -13 -14 -5 3 1 1 10 3 -1 -4 -13 -18
-20 -20 -20 -20 -20 -5 0 -20 -20 -20 -20 -20 -20 -20 -20 -20 -20 -20 -20 -20 -20 -20 -20 -20 -20 -20 -20 -20 -20 8 14 13 -1 -16 -16 -5 -17 -20 -20 -20 -20 -20 -20
-20 1 -20 -20 -20 -20 -13 -2 -3 3 -20 -20 -20 -12 -20 -20 -20 -20 -20 -20 -20 -20 -17 -18 4 -19 -14 -16 4 11 10 11 -11 -16 -15 -19 -20 -20 -20 -20 -20 -20 -20
-20 -16 -12 -20 -17 3 15 -2 -6 -20 -20 -20 -20 -20 -20 -20 -20 -20 -20 -20 -20 -20 -20 -20 -15 8 25 23 18 12 1 -19 -16 -20 -20 -20 -20 -20 -20 -20 -20 -20 -19
-20 -20 -20 -20 -20 -20 -13 -19 -20 -20 -20 -20 -20 -20 -20 -20 -20 -20 -20 -20 -20 -20 -10 24 29 31 15 8 -1 -19 -20 -20 -20 -20 -20 -20 -20 -20 -20 -20 -20 -20 -1
-20 -20 -20 -20 -20 -20 -20 -20 20 0 -20 -20 -20 -20 -20 -20 -20 -20 -20 -7 -16 1 15 11 10 5 5 -1 -20 -20 -20 -20 -20 -2 -20 -20 -20 -20 -20 -20 -20 -20 -20
-20 -11 -5 -19 -20 -20 -8 -20 -20 -13 -20 -2 3 -17 -16 -11 9 8 2 22 32 23 12 14 9 2 -2 -10 -9 -15 -20 -20 -20 -20 -20 -20 -20 -20 -20 -20 -20 -20 -20
Wind_Speed
5 5 5 5 6 6 6 7 8 7 6 7 6 6 5 6 6 9 12 9 10 8 10 11 9 10 6 4 3 2 6 8 8 9 7 8 8 9 9 8 9 11 10
7 6 6 6 6 7 7 8 9 10 10 10 7 6 4 3 2 4 8 9 12 10 10 13 12 11 12 11 9 6 5 4 9 11 11 10 9 7 8 7 7 7 6
8 8 6 6 7 7 8 6 10 8 10 12 12 9 6 4 4 7 7 10 10 11 11 12 12 11 11 9 8 7 6 5 8 9 10 9 8 7 7 5 5 3 4
9 8 8 7 8 7 7 7 8 9 12 11 12 12 11 8 8 11 11 11 11 11 10 11 11 11 11 11 7 7 7 8 8 8 8 7 7 6 6 6 5 6 6
10 10 9 8 8 8 7 7 8 8 9 11 12 11 12 10 7 10 11 11 12 12 11 10 8 9 11 7 6 6 8 7 8 7 7 6 6 5 8 6 8 7 7
11 10 10 10 10 9 8 8 8 9 9 9 9 10 11 9 9 10 10 9 10 10 10 10 9 10 11 11 10 11 3 6 6 5 5 4 5 6 7 9 7 8 9
11 11 10 10 11 10 9 8 8 8 8 9 10 10 9 9 6 9 5 9 10 9 9 8 8 7 8 9 8 9 8 8 8 2 5 4 5 8 9 9 10 10 10
13 12 11 12 12 11 11 10 8 7 7 7 7 7 8 6 5 6 4 7 6 6 6 5 5 6 5 5 5 5 5 5 4 5 7 6 6 4 8 9 9 10 10
14 13 13 12 13 13 12 11 8 8 7 7 7 7 6 7 6 4 4 6 6 5 5 4 4 4 4 4 6 7 7 6 4 2 3 4 4 5 5 7 9 9 11
16 14 14 13 13 13 13 11 10 8 8 7 7 6 4 7 7 6 5 5 7 6 5 5 3 1 8 5 6 7 6 5 5 5 5 5 7 6 7 10 9 11 11
16 15 14 13 13 13 12 11 10 9 9 8 8 7 7 7 9 9 8 5 7 7 7 7 7 9 9 6 5 3 1 4 2 5 6 6 6 7 7 8 10 11 11
17 16 16 14 12 11 13 12 11 10 9 9 8 7 8 8 4 10 10 7 5 6 5 5 5 11 7 5 4 2 2 4 6 6 7 7 7 7 6 6 8 9 11
18 17 17 15 13 13 13 12 11 11 10 10 9 9 8 9 8 10 12 8 5 3 4 8 11 9 6 5 10 5 5 7 7 8 7 7 6 5 6 6 8 11 13
18 17 16 16 15 13 11 11 10 10 10 10 10 10 9 9 9 10 9 7 4 6 6 6 2 2 6 3 3 7 8 8 6 7 6 6 6 6 6 7 8 8 8
18 18 17 15 16 14 12 12 12 11 11 11 10 10 10 10 10 9 9 9 9 10 8 6 6 6 7 8 7 6 4 3 5 4 5 5 6 6 7 7 6 7 10
18 16 15 14 15 13 13 12 9 2 13 9 2 5 7 10 12 13 11 7 5 12 7 7 7 4 4 4 3 2 0 4 2 4 6 7 8 7 8 9 7 7 9
18 17 15 15 15 15 14 14 13 10 3 4 5 2 9 11 11 11 8 9 8 10 7 4 4 4 3 2 2 1 3 6 5 5 6 3 3 5 6 8 9 10 10
19 15 16 16 15 15 15 14 13 13 14 13 2 4 11 13 13 14 14 14 6 6 6 5 4 4 4 6 7 7 8 7 6 5 5 2 5 6 8 9 10 10 11
18 16 16 15 16 15 15 15 14 14 13 13 11 6 9 10 11 12 14 9 6 6 5 5 4 6 7 8 9 7 7 4 4 6 5 6 5 5 8 9 10 9 8
18 17 15 15 13 14 13 14 13 13 12 12 12 11 11 11 10 10 8 5 6 7 7 9 8 8 7 8 7 6 2 4 3 2 3 5 7 6 7 8 9 10 10
13 15 10 12 14 13 13 13 12 12 12 12 10 12 12 8 9 10 9 9 10 10 11 10 9 9 8 5 5 4 3 3 5 3 4 4 5 6 6 7 9 9 11
12 13 14 15 13 12 13 12 13 12 12 9 10 9 7 10 11 12 12 12 10 10 7 9 8 5 5 6 6 3 5 5 4 3 3 4 5 7 6 7 8 7 9
12 13 12 13 12 11 9 13 12 12 10 11 13 14 11 12 13 13 13 13 11 10 8 9 7 7 8 6 7 4 4 3 3 3 4 5 5 6 7 7 9 10 10
12 12 12 12 14 13 13 12 9 10 12 13 13 13 13 14 14 15 14 13 12 10 9 6 7 7 7 7 6 4 4 3 3 3 4 5 6 6 7 7 9 10 8
9 9 11 11 10 12 12 12 12 13 13 13 13 13 14 14 14 15 14 11 9 12 13 9 8 10 10 9 9 10 5 6 7 6 5 6 7 9 8 8 10 10 12
10 11 8 10 10 11 11 13 14 15 14 15 15 15 14 13 11 9 9 12 12 8 14 10 11 13 12 10 10 8 6 5 6 6 7 6 7 9 9 12 14 11 13
Wind_Direction
128 110 91 88 70 73 68 64 79 86 102 95 70 73 60 76 77 103 109 116 112 130 141 138 129 138 115 108 178 197 176 171 141 149 136 138 169 184 158 199 158 198 166
137 128 105 103 92 78 75 77 86 106 115 113 111 104 96 89 81 103 129 140 133 148 151 141 140 159 168 182 182 217 181 182 144 153 148 160 173 165 174 192 200 208 175
148 142 130 117 114 91 89 77 85 105 112 127 126 121 120 125 172 125 132 127 128 127 138 141 158 156 171 162 180 176 157 150 144 163 167 165 148 165 172 171 205 191 212
150 145 141 138 134 113 105 102 94 89 102 105 116 130 140 152 122 120 123 118 118 121 136 137 151 159 157 154 151 158 152 149 154 167 167 161 177 160 211 192 199 214 207
157 148 149 147 144 142 126 117 106 104 104 109 110 110 115 121 105 110 102 107 111 114 112 109 93 72 68 73 141 153 146 167 167 164 168 182 181 176 210 212 232 211 213
164 154 155 161 154 153 148 134 131 124 119 117 112 105 93 85 31 50 116 115 112 109 105 105 111 107 77 53 44 43 115 170 183 185 171 205 204 213 220 229 226 223 237
174 161 160 164 165 161 163 160 147 141 134 125 122 115 104 101 78 67 40 117 121 122 124 130 134 112 146 128 112 118 84 68 43 262 289 246 245 217 236 220 230 236 241
180 169 168 171 172 169 169 166 159 156 156 151 142 128 130 103 76 67 60 111 114 113 118 124 121 134 93 141 135 123 138 157 193 219 228 242 230 247 227 237 251 250 258
181 177 174 174 173 176 177 170 171 168 165 169 167 161 157 140 145 159 239 165 136 126 117 114 127 132 79 337 169 170 176 180 134 231 297 330 324 304 296 248 235 242 251
182 181 177 175 174 179 181 178 176 182 181 185 179 181 134 159 170 190 229 162 150 148 151 136 355 313 161 218 200 179 190 187 213 196 205 212 212 210 234 243 256 256 257
181 179 176 175 176 177 176 174 175 187 180 199 188 183 187 197 165 188 227 204 160 172 165 173 174 160 181 212 298 201 301 325 189 267 256 248 243 245 245 225 252 264 272
183 179 177 174 181 173 176 177 181 183 184 187 190 196 190 191 196 185 202 245 351 175 169 162 138 165 174 194 234 34 67 287 260 260 259 264 267 266 264 259 261 266 276
185 182 178 176 185 172 178 178 180 182 188 191 188 194 189 181 190 162 187 209 233 250 29 60 103 154 163 206 241 262 198 235 256 265 268 276 289 333 327 285 278 267 269
186 185 180 179 182 178 183 181 193 186 196 192 189 191 190 186 192 173 186 186 206 229 220 224 154 168 221 281 208 200 235 252 270 287 295 311 308 274 282 290 290 305 318
184 186 186 185 185 181 194 188 195 190 198 194 194 193 189 195 193 183 167 181 184 208 198 213 191 203 218 215 214 222 239 250 255 282 296 304 303 309 310 337 329 296 275
184 188 189 188 182 187 188 190 210 233 190 225 33 224 159 99 103 125 150 181 158 142 197 225 211 213 222 225 219 168 225 142 347 355 339 353 350 343 328 301 289 300 298
191 189 190 201 185 194 191 195 190 202 102 260 220 42 67 123 127 150 159 119 142 149 228 192 188 183 158 134 91 84 98 60 10 16 24 22 235 264 313 324 317 314 314
197 188 199 194 198 196 197 198 201 192 196 204 104 199 156 142 156 144 145 136 150 227 208 200 170 164 125 88 67 53 32 55 39 6 346 316 352 338 320 316 317 328 329
200 202 202 200 206 201 200 200 203 204 202 199 134 121 110 149 142 152 171 224 210 171 171 117 116 103 98 93 97 105 106 107 39 14 346 318 342 320 312 336 333 334 315
207 212 194 212 203 205 212 206 209 207 204 208 174 143 139 154 150 156 171 141 115 111 108 119 106 108 98 101 104 70 107 104 162 232 353 349 345 341 341 335 325 331 334
204 197 210 210 205 208 208 212 208 210 207 203 208 132 166 167 145 128 123 130 115 133 123 117 116 108 118 126 115 95 137 108 69 48 0 3 336 0 343 344 340 343 337
201 204 187 208 218 206 203 208 212 205 210 172 111 125 144 138 132 131 117 105 95 93 91 114 106 116 115 116 101 118 72 68 48 10 334 6 12 4 348 341 329 336 334
194 196 188 187 210 198 185 213 213 210 145 143 144 149 148 130 123 121 120 116 110 106 107 106 100 99 102 95 79 76 82 70 63 9 7 12 347 9 326 344 337 337 343
190 184 188 188 194 189 189 195 168 141 147 154 157 139 132 130 127 123 118 116 108 113 104 87 102 108 107 104 107 102 85 36 48 36 339 355 355 355 337 337 324 335 305
174 176 184 178 153 173 148 160 153 152 152 140 134 131 127 126 127 124 125 114 121 122 123 124 120 125 119 113 100 95 76 32 31 321 331 352 338 322 333 339 329 325 325
147 148 157 157 152 147 149 146 150 142 139 139 137 127 121 113 110 114 125 122 115 123 119 129 132 118 117 103 90 67 44 18 8 346 323 322 332 333 354 335 332 332 338